Wind_Speed
4 4 4 4 3 2 1 2 3 4 5 5 5 4 4 4 4 4 4 3 3 4 5 6 7 7 8 9 10 11 11 13 13 15 16 15 14 15 17 18 19 21 22 19 15 12 7 6 7 10 15 19 22 24 25 23 22 23 24 25 22 19 20
4 4 4 3 2 2 1 2 4 6 7 7 7 7 5 5 5 4 4 4 4 5 6 6 8 8 9 10 10 11 12 13 14 15 16 17 18 17 17 18 18 18 19 20 20 16 11 9 8 5 7 12 16 22 26 24 24 24 23 27 28 22 20
5 4 3 2 2 2 2 3 5 6 8 8 8 8 6 5 6 5 5 5 6 6 6 7 8 9 10 11 11 12 13 14 16 17 17 17 19 20 20 20 18 16 15 15 16 16 13 11 9 6 6 8 10 16 24 26 25 25 22 24 29 27 22
5 5 4 4 3 3 3 4 5 6 7 7 6 6 5 5 6 6 6 6 6 7 7 8 9 10 11 11 12 13 13 14 15 16 17 18 19 20 22 23 21 20 17 15 14 16 13 10 9 8 9 12 12 14 20 25 26 25 22 22 27 31 27
6 6 5 5 4 4 4 6 7 7 7 7 6 6 6 7 7 6 7 7 8 8 8 9 9 10 11 11 12 13 13 13 14 15 17 18 19 20 20 20 22 23 21 18 17 16 15 14 12 8 9 12 12 14 18 20 23 26 26 23 25 30 31
7 6 6 5 4 5 6 8 10 9 8 9 9 9 9 9 9 8 9 9 9 9 9 9 10 10 10 11 11 12 12 13 14 16 19 19 19 20 20 20 21 23 22 20 20 18 16 16 14 10 10 11 9 11 15 15 18 22 26 26 25 27 29
6 5 5 5 5 6 7 9 9 9 9 10 10 10 10 10 10 10 11 10 9 9 9 9 9 9 10 11 11 12 13 14 16 17 19 20 20 20 20 20 20 21 21 20 19 20 18 17 15 11 9 9 10 12 13 14 16 16 20 25 27 27 28
5 5 5 5 5 6 7 8 8 8 9 9 9 10 12 13 13 12 12 12 10 9 9 9 9 10 11 12 12 13 13 14 15 17 19 19 18 18 19 18 18 19 20 20 20 21 21 20 21 18 12 7 7 9 9 11 15 16 18 20 24 29 29
5 5 5 5 5 6 7 7 8 8 9 9 11 12 14 14 13 13 13 12 12 11 11 10 11 11 12 13 13 13 14 14 15 16 18 18 17 17 18 17 17 18 18 19 20 21 21 21 23 24 21 13 8 6 6 8 10 13 19 18 20 26 29
5 5 5 5 5 6 6 7 8 8 9 11 12 13 13 12 13 13 13 12 12 12 12 12 12 11 12 13 13 14 15 15 15 16 16 17 17 17 18 17 17 17 17 17 19 20 20 21 23 25 25 23 17 9 6 8 8 9 17 20 18 21 26
5 5 5 5 6 7 7 8 8 9 10 11 11 12 12 12 12 12 12 11 11 11 12 12 12 11 12 13 14 14 15 16 15 14 14 16 16 16 16 16 16 16 17 17 18 19 19 20 22 23 24 25 24 17 9 7 7 9 15 19 18 18 22
5 5 6 6 7 8 8 8 8 9 9 9 10 11 12 12 11 11 11 11 12 11 11 11 11 11 13 14 15 15 14 16 15 12 12 13 14 14 14 15 15 15 15 16 16 17 19 19 21 22 22 22 25 25 19 10 5 9 16 19 18 18 19
6 7 7 7 8 9 8 7 8 9 8 8 9 10 11 11 11 11 10 11 12 12 13 12 11 11 13 13 14 14 13 15 15 13 12 12 12 13 14 14 15 14 14 14 15 16 17 18 18 20 21 22 24 26 25 17 7 7 15 19 17 17 18
7 7 8 8 8 8 8 7 8 8 8 8 9 9 10 10 10 10 11 11 13 12 12 12 12 11 12 12 13 13 13 13 13 13 13 13 13 13 13 14 14 13 13 13 14 15 16 15 16 18 19 20 22 23 24 21 12 7 12 17 17 16 17
8 8 8 8 8 8 7 7 8 8 8 8 8 9 10 10 9 10 11 11 12 13 12 11 11 11 12 12 12 12 12 12 11 11 12 12 13 12 12 13 13 13 11 12 13 14 14 14 14 15 18 19 20 22 23 23 18 10 11 16 17 15 16
9 9 8 8 8 8 7 7 7 7 7 6 7 8 9 9 9 10 10 11 12 13 12 10 9 11 12 11 12 12 12 12 11 10 10 10 11 11 10 11 11 11 10 10 11 12 13 13 13 14 16 19 19 20 23 23 19 12 11 14 16 15 16
9 9 8 8 8 8 8 7 6 6 6 6 7 8 8 8 9 10 11 12 13 13 13 12 9 10 12 12 12 12 12 11 11 10 9 10 10 10 9 9 10 10 10 10 10 11 11 12 13 14 15 17 18 19 21 22 20 15 11 12 15 16 17
9 9 8 8 9 8 8 7 6 6 6 7 8 8 8 8 9 11 13 14 16 17 17 16 14 12 12 12 12 12 12 12 11 10 10 10 11 11 10 10 10 11 11 10 10 9 10 11 12 14 15 16 17 17 18 21 21 18 15 13 15 17 17
8 8 9 9 8 8 7 7 6 6 7 7 8 9 10 10 11 13 15 17 18 20 20 19 17 15 14 12 12 11 11 11 11 11 11 12 12 12 12 11 11 11 11 11 10 9 9 9 11 13 15 16 16 15 16 20 20 18 18 16 15 18 18
8 8 9 8 8 7 7 7 6 6 7 8 9 11 13 14 15 17 18 19 20 20 19 18 16 15 14 13 12 12 11 10 11 12 12 13 14 14 13 13 13 13 12 11 10 9 9 9 10 10 12 13 14 15 15 18 18 17 17 15 14 18 19
8 9 9 9 8 7 8 8 8 8 9 10 11 13 16 17 19 20 21 21 21 20 20 19 18 16 14 13 13 13 13 13 13 13 14 14 14 16 15 14 14 15 14 12 11 10 9 9 10 10 10 11 13 15 15 15 15 15 15 13 13 15 16
9 9 10 9 9 9 9 9 9 10 11 12 13 15 17 19 20 21 21 22 22 22 22 23 20 16 14 14 15 15 16 16 16 16 17 17 16 16 17 16 16 17 15 11 9 8 8 8 9 9 9 9 10 13 15 15 15 15 14 15 15 15 15
9 10 10 10 9 9 10 11 13 13 13 14 15 17 19 21 21 20 20 22 23 24 25 23 19 16 15 16 17 18 19 19 19 19 18 19 19 19 19 18 18 19 18 15 12 10 8 6 5 5 6 6 6 9 11 13 15 15 14 14 14 14 14
9 9 10 11 10 11 13 17 20 20 19 19 20 20 20 21 21 19 19 20 22 25 26 22 19 18 17 18 20 21 22 22 22 22 20 19 19 19 20 19 19 21 21 20 19 17 15 14 12 9 7 6 5 3 4 5 9 13 14 13 11 12 13
9 9 11 12 12 16 20 23 24 24 23 22 22 20 18 18 18 18 18 20 22 24 25 23 22 21 20 21 22 23 24 24 24 24 22 20 20 19 20 20 21 22 21 20 20 21 21 21 20 18 16 13 12 10 7 6 4 5 9 11 11 12 13
10 10 11 12 15 20 24 24 25 26 24 20 19 18 16 16 17 16 18 20 22 24 25 25 25 24 23 24 25 24 23 24 24 24 23 22 22 22 22 23 24 24 22 19 19 20 21 23 24 25 24 22 21 19 15 12 10 5 2 4 5 6 7
10 10 12 16 20 22 23 24 25 25 23 19 16 17 17 17 17 17 17 19 21 25 26 25 26 26 26 27 27 23 21 21 22 23 23 22 22 23 24 23 23 25 25 23 21 18 18 20 24 27 30 32 32 30 26 22 19 14 10 6 5 4 2
10 11 15 20 21 21 23 25 26 26 23 18 16 18 18 18 18 17 17 18 22 26 25 24 26 28 27 28 26 22 19 20 21 22 23 23 23 22 21 21 23 26 28 28 25 21 18 19 22 24 27 30 33 36 37 33 29 24 21 18 15 13 9
11 13 18 21 21 21 24 24 25 27 26 23 22 21 18 20 23 22 20 21 21 22 23 24 26 28 28 28 28 26 22 20 22 23 23 25 26 25 24 25 28 30 30 29 28 27 25 25 25 25 25 24 27 33 37 36 33 31 28 26 23 19 16
11 14 18 19 18 20 22 23 23 25 27 28 28 25 21 23 27 28 27 26 22 20 22 24 25 27 28 29 32 32 27 23 22 24 25 26 30 33 33 32 33 33 31 29 29 29 29 28 26 26 24 23 27 31 33 34 36 35 33 32 29 26 22
11 13 14 13 15 18 21 24 24 26 28 28 27 26 26 27 29 30 30 30 26 24 24 23 23 26 28 29 31 32 30 30 27 25 27 31 33 35 36 34 34 34 32 30 29 29 30 27 25 23 22 23 27 29 29 32 36 37 37 38 36 34 32
12 14 14 14 18 21 23 24 25 27 29 28 26 26 27 27 28 29 30 30 30 28 27 24 23 24 25 28 29 26 26 29 28 24 26 30 33 35 35 34 33 33 32 31 30 31 32 29 25 22 20 22 25 25 26 31 35 36 38 41 40 40 40
12 15 18 20 22 24 24 25 26 27 28 28 27 27 27 28 28 29 29 30 30 30 29 27 24 24 24 27 29 27 24 23 23 22 24 25 27 32 34 34 33 31 31 32 31 31 32 31 27 23 21 22 23 21 22 29 34 35 37 39 39 40 41
14 18 21 23 24 25 25 26 27 27 26 27 28 28 27 28 29 28 28 29 29 29 29 28 26 26 26 27 28 30 28 22 18 20 24 25 25 28 31 33 33 30 30 31 31 31 32 32 32 30 28 27 26 23 22 25 28 30 33 34 35 36 37
16 21 23 23 24 25 25 26 27 26 26 27 29 27 25 24 24 24 26 27 27 28 28 28 28 27 27 27 28 30 31 27 23 23 25 25 24 25 29 32 33 31 30 31 31 32 33 33 34 34 32 31 32 31 29 27 25 25 25 26 26 28 30
19 23 24 24 25 24 24 25 26 26 25 25 26 24 21 20 20 20 21 22 24 25 26 27 28 27 27 28 28 29 31 30 30 31 30 25 24 26 29 32 33 33 33 34 34 34 34 35 35 35 34 33 34 33 32 31 28 25 24 24 23 23 23
22 24 23 24 25 24 24 25 25 25 24 22 21 20 17 17 17 18 18 18 19 21 23 25 26 27 27 27 28 29 30 31 32 34 33 30 29 30 31 31 31 32 33 35 35 36 36 36 35 35 34 35 35 33 29 28 27 26 26 25 24 23 21
Wind_Direction
187 169 157 145 138 126 84 70 58 51 41 29 23 12 353 343 345 347 336 319 315 311 302 292 284 284 283 278 277 277 275 272 265 263 263 260 255 251 244 243 247 247 246 246 248 253 264 264 240 230 235 236 233 235 235 230 230 231 225 221 221 216 213
153 138 132 136 140 129 100 77 62 44 27 14 5 357 345 340 341 337 326 313 306 303 300 297 293 290 288 282 278 277 276 273 267 264 264 263 260 254 243 240 240 239 239 242 244 240 238 254 260 238 228 233 234 234 234 232 231 230 226 225 224 217 212
144 137 134 139 141 118 90 67 45 25 14 4 357 352 344 339 335 326 319 307 299 298 292 292 293 290 287 282 277 274 271 270 267 265 264 264 264 260 254 250 242 235 236 241 241 232 228 238 248 248 228 219 227 232 233 231 229 229 225 223 223 218 214
149 146 138 123 106 83 59 40 26 14 7 359 355 351 342 337 331 320 314 305 299 299 295 295 294 293 293 289 286 280 273 271 269 268 267 266 267 264 261 259 250 241 238 234 231 226 225 230 234 244 236 225 228 237 238 233 228 228 226 221 221 220 219
143 135 120 101 80 56 34 17 9 2 360 359 356 351 340 335 329 320 316 310 306 303 300 299 296 295 296 293 291 286 281 277 272 274 274 270 268 265 263 264 258 254 253 249 244 235 231 232 232 237 234 226 230 240 243 236 229 230 229 221 219 219 218
126 113 98 83 57 31 16 4 2 0 357 354 348 343 338 337 333 325 321 316 311 308 304 302 299 294 294 292 291 289 286 282 279 282 279 274 274 268 262 263 264 268 272 269 261 253 245 238 234 237 233 223 225 237 237 229 225 229 228 224 222 218 214
109 91 76 61 38 21 12 5 4 1 352 345 342 342 339 337 334 327 324 320 316 314 310 306 302 297 295 293 291 291 292 289 287 289 284 279 281 278 267 260 261 266 269 269 264 256 251 242 234 234 230 220 224 234 233 224 218 219 222 223 223 219 212
84 69 58 46 31 20 14 7 2 356 348 344 342 339 333 330 331 330 328 324 319 317 313 310 307 302 301 299 295 295 296 296 294 293 291 286 283 280 274 266 261 263 263 262 263 258 253 248 242 236 229 221 225 230 229 221 215 214 218 218 218 218 214
68 60 48 35 25 20 14 4 357 352 349 345 339 334 332 332 334 333 330 326 323 321 316 313 309 304 304 304 301 300 300 302 302 299 294 290 287 284 283 277 267 265 265 262 261 262 258 254 249 242 233 226 226 229 225 218 213 216 217 210 210 216 216
54 48 39 34 27 20 11 357 353 350 344 340 336 333 333 333 330 329 327 327 325 322 319 317 315 311 309 310 309 308 310 308 305 305 299 288 287 288 287 284 276 270 270 267 263 264 261 253 248 243 236 229 228 231 229 219 211 208 209 205 203 208 211
43 40 39 34 23 13 5 358 354 349 341 336 331 330 332 332 331 330 333 332 327 325 324 325 326 323 319 318 316 313 316 313 301 303 308 294 287 292 289 285 282 274 270 269 267 266 263 254 246 244 240 235 231 231 235 228 215 205 200 200 203 201 202
48 48 45 34 20 11 8 6 356 344 340 336 331 335 339 341 340 340 342 340 335 334 332 332 333 329 324 324 322 318 319 317 301 293 311 308 295 291 289 284 281 277 270 269 271 269 262 255 249 247 245 238 232 232 235 236 226 209 196 196 205 205 198
63 54 42 32 23 15 9 3 350 341 343 344 342 345 344 343 343 344 347 348 345 340 335 340 345 335 329 330 325 319 318 319 309 297 303 312 306 295 290 290 286 280 277 273 272 270 264 259 253 250 247 240 233 232 234 235 240 216 199 199 205 206 202
55 40 30 23 19 11 2 356 350 347 351 350 348 347 344 344 344 343 349 354 354 348 340 344 347 336 333 335 330 324 321 321 318 312 308 309 309 301 294 295 292 285 282 279 276 272 266 263 256 250 248 241 233 231 231 232 237 224 200 202 205 205 203
36 26 23 20 13 6 358 356 355 356 355 350 350 348 345 349 350 349 354 356 360 0 353 348 342 334 336 337 334 334 334 330 327 324 320 316 313 308 303 301 298 293 287 280 278 275 268 262 256 249 246 240 234 231 228 228 228 215 191 196 203 203 200
28 22 19 15 14 9 5 4 0 359 355 349 353 354 354 1 1 1 5 4 4 4 1 357 347 341 347 350 347 345 344 342 341 338 335 333 328 323 319 313 307 302 296 286 281 278 273 266 257 253 250 242 237 233 228 226 223 208 181 184 196 200 198
24 23 22 20 22 18 14 14 7 5 8 11 17 15 13 15 11 10 14 16 18 18 16 16 9 1 5 9 4 354 348 349 351 351 350 348 342 335 331 324 316 310 303 295 287 281 280 274 262 260 257 247 241 235 229 225 223 215 197 186 196 204 205
23 29 35 34 32 28 26 23 18 24 31 33 35 30 23 21 21 26 32 34 35 35 34 32 28 23 21 17 7 357 354 355 356 357 355 352 349 346 342 334 325 322 316 306 299 292 285 275 264 260 257 249 243 239 233 228 225 220 213 203 199 204 209
36 42 45 43 41 35 31 29 29 35 37 38 39 36 35 38 41 45 46 45 43 41 40 37 32 28 25 19 11 4 1 359 2 7 6 4 5 2 356 350 341 334 325 313 307 306 298 284 271 261 257 254 248 244 237 231 225 215 211 211 201 197 203
52 54 55 55 50 40 38 42 44 44 43 46 48 47 50 54 56 56 52 48 46 44 42 40 36 34 31 27 21 19 18 18 20 21 17 15 17 14 10 7 1 354 343 330 322 318 316 308 296 279 268 263 256 251 243 233 226 213 207 210 203 199 200
63 67 70 67 59 54 56 54 53 58 60 59 57 57 59 61 60 57 52 49 47 45 44 41 37 36 38 38 35 35 36 36 35 31 27 28 26 20 19 17 13 10 2 345 332 325 321 314 310 306 294 277 263 254 246 237 229 220 210 206 206 206 202
76 79 78 73 68 66 64 59 61 69 73 71 67 64 64 62 58 54 51 50 49 47 45 42 37 35 40 45 47 47 47 44 42 39 37 36 32 23 22 23 24 25 21 3 345 335 324 311 306 312 311 295 273 256 246 240 234 227 219 213 211 207 200
82 83 82 78 74 69 67 69 73 75 76 75 71 69 67 63 59 55 53 52 52 50 49 47 44 43 48 54 56 56 53 50 47 43 38 38 36 31 30 31 30 32 34 30 25 20 11 359 343 332 327 314 287 263 249 238 230 223 217 215 213 204 198
85 84 86 83 79 77 79 80 81 80 78 74 71 68 65 63 60 57 55 52 51 52 54 54 55 55 59 63 64 61 56 52 50 46 41 38 37 35 34 35 35 36 40 45 48 48 48 46 45 42 34 26 12 334 294 261 236 223 216 215 213 205 203
89 91 90 87 87 87 87 86 82 80 77 73 69 66 61 60 61 58 56 54 53 55 57 59 61 62 65 67 67 64 59 55 52 49 45 41 39 37 37 38 40 41 43 48 54 57 58 57 56 55 53 50 46 41 30 12 331 251 228 224 222 216 219
92 94 93 93 93 92 90 86 81 79 77 72 68 63 59 59 59 57 57 57 57 58 60 63 64 65 67 70 69 66 61 58 55 50 46 44 43 43 43 42 43 45 48 50 53 56 60 62 62 61 61 61 58 56 52 44 35 19 309 251 241 230 236
96 96 98 98 96 93 89 85 82 81 78 70 63 61 61 60 58 58 59 60 61 62 63 65 68 69 69 69 69 66 62 59 56 51 47 45 46 46 46 46 45 48 53 57 56 53 55 60 62 62 62 62 61 60 58 53 49 46 46 48 42 29 345
101 101 103 101 96 93 90 87 85 83 78 70 66 65 61 60 61 61 61 64 65 65 67 70 71 71 70 68 67 65 62 58 56 52 48 48 49 47 45 47 51 54 57 60 61 60 60 61 62 61 60 59 59 60 59 57 55 55 57 59 58 52 43
106 105 106 102 97 94 92 89 87 84 81 78 76 72 63 62 67 67 67 68 65 63 68 73 74 74 73 71 70 68 63 58 57 55 50 49 53 54 53 54 58 61 62 63 67 71 72 70 68 65 61 59 59 60 59 60 61 62 62 63 64 63 61
107 108 107 100 95 96 95 93 90 87 85 83 79 75 71 70 71 71 71 70 64 60 66 74 78 79 79 77 75 73 69 63 60 58 56 55 57 60 61 62 64 64 63 65 70 74 73 71 68 66 63 61 62 61 59 61 65 66 67 67 67 67 65
108 107 104 96 96 99 98 97 95 93 91 87 81 78 78 76 73 72 72 71 68 64 65 72 80 83 84 83 79 75 74 73 70 65 63 63 63 62 63 65 66 67 66 66 68 71 72 70 66 63 61 60 61 58 56 60 64 66 67 69 68 69 68
107 108 106 104 105 105 102 100 99 98 96 92 86 83 81 79 75 72 72 72 72 68 65 68 76 82 85 87 83 79 76 75 73 68 65 65 65 64 64 65 66 68 69 68 66 67 70 71 67 63 62 62 60 56 55 60 64 63 63 64 63 64 65
108 111 113 112 111 110 107 105 102 101 98 94 90 86 83 80 78 74 72 72 72 71 68 66 71 77 81 85 86 83 78 71 69 68 67 64 63 63 64 64 64 67 69 69 68 68 70 72 71 67 65 65 64 62 60 63 65 64 63 62 60 60 60
110 114 116 116 115 112 109 107 104 101 97 94 92 88 84 82 80 76 75 73 71 71 72 71 71 75 78 81 85 85 82 75 70 71 71 67 63 62 62 64 65 66 68 69 70 70 72 74 75 73 72 72 72 72 68 64 64 64 63 62 60 59 59
112 117 118 116 115 112 108 108 105 101 98 95 93 89 84 81 80 76 76 75 72 71 73 75 76 76 77 79 81 84 85 83 81 79 74 68 64 63 64 66 68 69 70 71 71 72 73 75 76 76 76 76 75 73 70 66 63 62 61 61 60 58 57
116 118 118 116 114 111 108 108 106 102 99 95 91 88 83 81 80 77 74 73 73 72 74 77 79 79 79 80 81 84 86 86 85 84 79 72 68 69 70 72 73 73 73 73 73 74 74 74 75 76 75 75 73 70 67 64 62 60 60 60 59 57 56
120 118 117 117 115 111 109 108 105 101 98 93 89 86 81 78 80 78 74 72 72 73 75 78 81 83 83 83 84 85 86 86 86 86 84 79 77 78 77 77 78 77 76 76 75 74 74 73 73 73 73 72 70 66 62 59 57 58 57 56 56 56 54
Height
820 821 822 823 823 823 823 823 823 823 823 823 822 822 822 821 820 819 819 818 818 818 817 817 817 817 816 815 815 815 814 814 813 813 812 812 811 810 811 811 812 812 812 813 813 812 812 810 808 808 809 809 810 811 811 813 814 816 818 819 820 822 824
820 821 821 822 822 822 823 823 822 822 822 822 822 821 821 820 819 819 818 817 817 816 816 815 815 815 814 814 813 813 812 812 811 810 810 809 808 807 808 809 809 808 809 810 810 810 810 809 807 806 807 808 808 808 808 809 810 813 815 816 817 820 822
819 820 821 821 822 822 822 822 822 821 821 821 821 820 820 819 818 818 817 816 815 815 814 813 813 813 812 812 811 811 810 809 808 807 807 806 805 805 805 805 804 804 805 805 806 806 807 807 806 805 805 806 806 805 804 805 807 809 811 812 814 817 819
819 819 820 821 821 821 821 821 821 821 820 820 820 819 819 818 818 817 816 815 814 813 812 812 811 811 810 809 809 808 807 807 806 805 804 803 803 802 801 801 801 800 800 800 801 802 803 803 804 803 802 803 803 802 802 802 804 807 809 809 810 813 816
818 819 819 820 820 820 820 820 820 819 819 819 819 818 818 817 816 815 814 813 812 811 810 810 809 808 808 807 806 806 805 804 803 802 801 801 800 799 798 798 798 798 797 797 797 797 798 799 800 800 799 800 801 800 800 801 802 804 805 807 807 808 811
818 818 819 819 819 819 819 818 817 817 817 817 817 817 816 815 814 813 813 812 810 809 808 807 807 806 806 805 804 803 802 801 801 800 799 798 797 796 795 795 795 794 794 795 795 795 795 796 797 796 796 798 798 798 798 799 800 801 802 804 804 805 808
818 818 818 818 819 818 817 817 816 816 816 816 815 815 814 813 813 812 811 810 808 807 806 805 805 804 803 803 802 801 800 799 798 797 796 794 794 793 792 792 792 791 792 792 793 793 793 793 794 794 794 795 795 795 796 796 797 798 798 799 801 802 805
818 818 818 818 818 817 816 816 816 815 815 815 814 814 813 812 811 810 809 808 807 805 804 803 803 802 801 801 800 799 798 797 795 794 793 792 791 790 790 790 789 789 789 789 789 790 790 790 790 791 792 793 793 793 793 793 794 794 794 796 797 799 801
818 818 818 818 817 816 816 816 816 815 815 814 814 813 813 811 810 809 807 806 805 804 803 802 801 800 800 799 797 796 795 794 793 791 790 789 788 788 788 787 787 786 786 786 787 786 787 787 787 788 789 790 791 791 791 791 790 790 791 794 794 795 797
818 818 818 818 817 816 816 816 815 815 814 814 814 813 812 810 809 807 806 805 804 802 801 800 800 798 797 796 795 794 793 792 791 789 788 787 786 786 785 785 784 784 784 784 784 784 784 785 785 785 786 786 788 788 788 787 786 785 788 790 791 792 794
817 818 817 817 817 816 816 815 815 815 814 814 813 812 811 809 808 806 805 804 802 801 800 799 798 797 796 794 793 792 791 790 788 787 786 785 784 784 783 782 781 781 781 781 781 782 782 782 782 782 783 783 784 784 784 784 782 782 784 787 787 789 791
817 817 817 817 816 816 815 815 815 815 814 814 813 812 810 808 807 805 804 803 801 800 799 798 797 796 794 793 791 790 789 788 786 785 784 783 782 782 781 780 779 778 778 778 778 779 779 779 780 780 780 780 781 781 781 781 781 780 781 784 785 786 788
817 817 816 816 816 815 815 815 815 815 814 813 812 811 810 808 806 804 802 801 800 799 798 797 796 795 793 792 790 789 788 786 785 784 783 782 781 780 779 778 778 777 776 776 776 776 776 777 777 777 777 777 777 778 779 779 779 779 780 781 783 785 786
817 816 816 816 816 815 815 815 814 814 813 813 812 810 809 807 805 803 802 801 799 798 797 796 795 794 792 791 790 788 787 785 784 783 781 780 779 778 778 777 776 775 775 774 774 774 774 774 775 775 775 775 775 776 777 777 777 778 779 780 782 784 785
817 817 816 816 816 815 815 815 814 814 813 812 811 810 808 806 805 803 802 800 799 797 796 795 794 793 791 790 789 787 786 785 783 782 780 779 778 777 776 775 775 774 774 773 773 772 772 772 772 773 773 773 773 773 774 776 776 776 777 779 781 782 784
817 817 817 816 816 816 815 815 814 814 813 812 811 809 808 806 804 803 801 800 798 797 795 794 793 792 790 789 788 787 786 784 783 781 780 779 777 776 775 774 774 773 772 772 771 771 771 771 771 771 771 771 771 770 772 773 774 774 775 777 780 781 782
818 817 817 817 816 816 816 815 814 814 813 812 810 809 807 806 804 802 801 799 798 796 794 793 792 791 790 789 788 787 786 784 783 781 780 779 778 776 775 774 773 772 771 771 770 770 769 769 769 770 770 770 769 769 770 772 773 773 774 776 778 780 781
818 818 818 817 817 817 816 816 815 814 813 812 810 808 807 805 804 802 800 799 798 796 794 793 792 791 790 789 788 787 786 785 783 782 780 779 778 776 775 774 773 772 771 770 769 769 769 768 769 768 769 769 769 768 769 770 771 772 773 775 776 778 780
819 819 818 818 818 818 817 816 816 814 813 811 810 808 806 805 803 802 801 799 798 797 795 794 793 792 791 790 789 787 786 785 783 782 781 780 778 777 775 774 773 772 772 771 770 769 768 768 768 768 768 768 768 768 768 768 769 770 772 773 775 776 778
820 819 819 818 819 819 818 817 816 814 813 811 810 809 806 805 804 802 801 800 799 798 796 795 794 793 791 790 789 788 786 785 784 782 781 780 779 777 776 775 774 773 772 771 770 769 768 767 767 767 767 766 767 767 767 767 768 769 770 772 773 774 776
821 820 820 820 820 820 819 817 816 814 813 812 811 809 807 806 804 803 802 801 800 799 798 796 795 793 792 791 790 788 787 785 784 783 782 780 779 778 777 776 775 774 773 771 770 769 768 767 767 766 766 766 766 766 766 767 767 768 769 770 772 773 774
821 821 821 821 821 820 819 818 816 815 814 812 811 809 808 806 805 804 804 803 802 800 798 797 796 795 794 792 791 789 788 787 785 784 782 781 780 778 777 776 776 775 773 771 770 769 768 767 766 766 766 766 766 766 766 766 767 768 768 769 771 772 773
822 822 822 822 822 821 820 818 817 816 814 813 811 810 808 807 806 806 805 805 803 802 800 800 799 797 795 794 792 791 789 788 787 785 784 782 781 780 778 778 777 776 774 772 771 770 768 767 767 766 766 765 765 765 765 766 766 767 767 768 769 770 771
824 824 823 823 822 821 820 819 818 817 815 814 812 811 809 808 808 808 807 806 805 804 804 803 801 799 797 796 794 792 791 790 789 787 786 785 783 782 781 779 778 777 776 774 773 772 770 769 768 767 767 766 766 765 765 765 766 766 767 767 768 769 769
825 825 824 824 823 822 821 820 819 817 816 815 813 812 811 811 810 810 809 808 808 807 807 805 803 802 800 798 796 795 794 793 791 790 789 788 786 785 784 783 781 780 779 778 776 775 773 772 771 770 769 768 767 767 767 767 766 766 766 767 768 768 769
825 825 825 824 823 822 821 820 819 818 817 816 815 814 814 813 812 812 811 811 811 810 809 808 806 804 802 800 798 797 796 795 794 793 792 791 790 788 787 786 784 783 782 780 779 778 777 776 775 773 772 770 770 770 769 769 768 767 767 767 768 769 770
826 826 825 824 823 823 822 821 820 819 818 818 817 816 816 815 815 814 814 814 814 813 811 811 809 807 805 803 801 800 799 799 797 796 795 794 793 791 790 789 788 787 785 783 782 781 780 779 778 777 775 774 773 772 771 770 770 769 769 768 769 770 770
826 826 825 825 824 823 823 822 821 820 820 820 820 819 818 818 817 817 817 817 816 815 814 814 812 810 808 807 805 803 803 802 801 800 799 798 796 795 795 793 792 791 789 786 785 784 784 783 782 781 780 779 778 776 774 774 774 773 772 771 771 771 772
826 826 826 825 824 824 823 823 822 822 821 821 821 821 821 821 820 820 819 819 818 818 818 817 815 813 812 810 808 807 806 806 805 804 804 802 800 799 798 797 796 794 793 791 790 788 787 786 785 784 784 784 783 781 780 781 780 778 776 774 774 773 773
826 826 826 825 825 825 824 824 824 824 823 823 822 823 823 823 822 822 822 821 821 821 820 819 818 816 814 813 811 810 810 810 809 809 808 807 805 804 802 801 800 798 797 796 794 792 791 789 788 787 788 788 787 785 786 787 785 783 781 779 777 776 776
826 826 826 827 827 826 825 825 825 825 825 825 825 825 825 825 825 825 824 823 823 824 823 822 821 819 817 816 814 814 813 813 813 813 812 811 809 808 807 806 804 802 801 801 799 797 794 793 792 792 792 792 791 790 792 791 789 787 785 783 781 780 780
826 826 827 827 827 827 827 827 827 827 826 826 827 827 827 827 827 827 827 827 826 826 826 825 824 822 821 818 817 817 817 816 816 816 816 815 813 813 812 810 809 807 806 805 803 801 799 797 796 797 797 796 795 796 798 796 793 792 789 787 786 785 784
827 827 827 827 828 828 828 828 828 828 828 828 829 829 829 829 829 830 830 830 829 829 829 829 827 826 824 822 820 820 820 819 820 819 819 818 817 816 816 815 814 813 810 808 806 805 803 801 800 801 801 800 801 803 803 801 798 796 794 792 792 790 789
827 828 828 828 829 829 829 830 830 830 830 831 831 831 832 832 832 833 833 833 833 833 832 832 831 830 828 826 824 823 822 823 823 823 822 821 821 820 820 819 819 817 815 812 810 809 807 806 805 805 805 805 806 807 806 804 802 801 799 798 797 796 795
828 829 829 830 830 830 831 831 831 832 832 833 833 833 834 835 835 836 836 836 836 837 836 835 834 833 832 830 828 827 826 826 826 825 824 824 825 825 824 824 823 821 819 816 815 813 812 811 810 809 810 810 810 809 808 807 806 805 803 802 802 801 800
829 830 831 831 832 832 833 833 833 834 835 835 835 836 837 838 838 839 840 840 840 840 840 839 838 837 836 834 833 831 830 829 828 827 827 828 828 828 828 827 826 825 822 820 819 817 816 815 814 814 815 814 813 812 811 810 809 808 807 806 805 805 806
831 831 832 833 833 833 834 835 835 836 837 837 838 838 839 840 841 841 842 843 843 843 843 843 842 841 839 838 837 836 834 833 832 831 830 831 832 831 831 831 829 828 826 824 823 821 820 819 819 819 818 817 816 815 814 813 813 812 811 810 809 810 811